Location: Makakahi
(40.6833°S, 175.6000°E)
Time: 23:15:46
(UTC+00:00)

FENGYUN 1C DEB - Pass Details

Date: 11 December 2024
Orbit: 841 x 907 km, 98.9° (Epoch: 11 January)

Event Time Altitude Azimuth Distance (km) Brightness Sun altitude
Rises 11:12:23 0° 188° (S) 3,498 ? -24.8°
Reaches altitude 10° 11:17:16 10° 225° (SW) 2,529 ? -25.0°
Maximum altitude 11:18:12 10° 235° (SW) 2,493 ? -25.1°
Drops below altitude 10° 11:19:08 10° 245° (WSW) 2,518 ? -25.1°
Sets 11:23:57 0° 283° (WNW) 3,426 ? -25.3°
